Location: Les Mille
(43.5024°N, 5.3858°E)
Time: 02:05:15
(UTC+00:00)

Daily predictions for brighter satellites

Satellite Brightness Start Highest point End
(mag) Time Altitude Azimuth Time Altitude Azimuth Time Altitude Azimuth
CZ-3 R/B 4.5 02:47:33 44° S 02:48:59 44° S 03:00:21 10° ESE
Cosmos 2344 4.5 03:18:42 38° SE 03:19:31 39° ESE 03:26:36 10° NE
Cosmos 2297 Rocket 4.5 03:42:27 15° SSE 03:42:27 15° SSE 03:43:24 10° SSE
USA 215 4.0 03:32:45 10° E 03:38:26 44° NE 03:38:26 44° NE
Cosmos 2227 Rocket 4.1 03:53:52 21° SSE 03:53:52 21° SSE 03:55:36 10° SSE
Cosmos 44 Rocket 4.5 04:10:40 39° E 04:10:40 39° E 04:14:05 10° SE
USA 238 DEB 4.4 04:08:11 37° N 04:10:41 52° NE 04:17:52 10° ESE
USA 238 4.4 04:08:16 37° N 04:10:47 51° NE 04:17:58 10° ESE
Cosmos 2369 3.8 04:16:56 72° ENE 04:16:56 72° ENE 04:22:15 10° NNE
Cosmos 773 Rocket 4.3 04:18:31 64° E 04:18:31 64° E 04:23:33 10° NNE
Cosmos 2327 Rocket 4.4 04:23:04 10° N 04:29:22 82° E 04:35:32 10° S
Nadezhda 1 Rocket 3.9 04:24:02 10° S 04:30:05 79° E 04:36:11 10° N
SL-4 R/B 3.7 04:33:38 27° ENE 04:33:38 27° ENE 04:35:33 10° E
Cosmos 1980 Rocket 2.7 04:31:47 10° S 04:37:21 60° ESE 04:42:56 10° NNE
FENGYUN 3A 4.5 04:33:42 10° NNE 04:38:57 50° E 04:44:10 10° S
Cosmos 1726 4.4 04:37:00 10° SE 04:40:00 24° E 04:43:00 10° NE
STARLINK-68 4.5 04:44:30 42° SSE 04:44:47 43° SE 04:48:37 10° ENE
Cosmos 1697 Rocket 2.5 04:45:12 67° WNW 04:45:16 67° WNW 04:50:53 10° NNE
STARLINK-61 4.0 04:46:08 57° E 04:46:08 57° E 04:49:30 10° ENE
COSMOS 2455 3.3 04:40:01 10° SSW 04:45:55 62° ESE 04:51:51 10° NE
SKYMED 2 3.6 04:42:34 10° SSE 04:46:53 76° ENE 04:47:34 60° NNE
STARLINK-51 4.5 04:48:55 39° SSE 04:49:32 43° SE 04:53:22 10° ENE
ALOS 2.6 04:45:32 10° NNE 04:50:12 64° ESE 04:54:49 10° S
STARLINK-30 4.5 04:50:30 40° SSE 04:51:11 44° SE 04:55:02 10° ENE
STARLINK-72 4.4 04:52:06 41° S 04:52:50 46° SE 04:56:42 10° ENE
Cosmos 1758 Rocket 4.1 04:50:26 17° N 04:53:42 59° E 04:58:03 10° SSE
Lacrosse 5 rocket 3.6 04:54:58 16° N 04:54:58 16° N 04:57:11 10° NNE
STARLINK-50 4.4 04:53:41 41° S 04:54:29 47° SE 04:58:22 10° ENE
Abrixas rocket 4.0 04:56:04 26° NE 04:56:04 26° NE 04:57:49 10° E
Meteor 1-21 Rocket 4.4 04:49:21 10° N 04:55:16 76° E 05:01:11 10° SSE
STARLINK-75 3.9 04:55:19 54° SSE 04:55:35 56° SE 04:59:23 10° ENE
STARLINK-59 4.2 04:55:28 44° S 04:56:14 51° SE 05:00:09 10° ENE
Cosmos 2184 Rocket 4.2 04:56:41 46° W 04:56:41 46° W 05:02:13 10° SSW
Cosmos 1538 Rocket 3.9 04:52:41 20° SSW 04:56:29 83° WNW 05:01:49 10° NNE
STARLINK-56 4.2 04:56:53 41° S 04:57:47 50° SE 05:01:42 10° ENE
Starlink (trailer) 4.2 04:58:28 41° S 04:59:26 52° SE 05:03:21 10° ENE
Okean O Rocket 2.9 04:56:23 10° NNE 05:00:38 42° E 05:04:50 10° S
STARLINK-38 4.1 05:00:04 41° S 05:01:04 54° SE 05:05:01 10° ENE
STARLINK-65 4.1 05:01:38 41° SSW 05:02:43 56° SE 05:06:40 10° ENE
NOSS 3-2 (C) 4.3 04:57:30 19° NNW 05:03:12 66° NE 05:11:33 10° SE
STARLINK-41 3.9 05:03:29 44° S 05:04:21 57° SE 05:08:08 10° ENE
STARLINK-53 3.9 05:03:24 43° SSW 05:04:27 60° SE 05:08:25 10° ENE
Cosmos 2154 Rocket 3.9 04:58:26 10° NNW 05:04:33 63° W 05:10:39 10° S
NOSS 2-2 (C) 3.9 05:05:42 41° N 05:05:42 41° N 05:08:45 10° NNE
Orbus 7S? 4.2 05:07:26 32° N 05:08:32 43° NE 05:14:11 10° ESE
Cosmos 1953 2.2 05:05:19 10° SSW 05:09:21 73° W 05:13:25 10° N
Cosmos 2082 4.1 05:10:06 38° W 05:10:17 39° WSW 05:15:30 10° S
BREEZE-M DEB (TANK) 2.8 05:10:05 49° NW 05:10:49 57° N 05:19:37 10° ENE
STARLINK 3.8 05:10:27 37° SSW 05:11:44 60° SE 05:15:31 10° ENE
ATLAS 3B R/B 3.6 05:08:15 13° NNW 05:13:56 43° NE 05:20:26 10° ESE
NOSS 2-2 (E) 4.2 05:16:11 32° NNW 05:16:11 32° NNW 05:19:16 10° NNE
NOSS 3-4 (A) 4.2 05:10:33 10° SSW 05:16:17 52° ESE 05:22:20 10° NE
NOSS 3-4 (C) 4.2 05:10:40 10° SSW 05:16:24 52° ESE 05:22:26 10° NE
Cosmos 972 Rocket 4.3 05:10:25 10° NNW 05:16:48 90° WSW 05:22:24 10° SSE
CZ-4B DEB 4.1 05:11:22 10° NNE 05:16:57 86° WNW 05:22:29 10° SSW
STARLINK-58 3.6 05:16:02 35° SW 05:17:36 75° SE 05:21:38 10° ENE
Cosmos 2058 Rocket 4.4 05:14:00 10° SSE 05:18:08 41° E 05:22:15 10° NNE
Cosmos 1825 Rocket 3.4 05:15:11 12° N 05:19:16 84° W 05:23:36 10° S
STARLINK-62 3.5 05:17:45 36° SW 05:19:19 80° SE 05:23:22 10° ENE
Cosmos 2297 Rocket 4.2 05:24:20 11° SW 05:24:20 11° SW 05:24:38 10° SW
USA 215 3.2 05:15:10 10° SE 05:21:41 70° SW 05:25:48 24° WNW
NOSS 3-2 (A) 4.0 05:19:33 19° NW 05:25:20 73° WSW 05:33:46 10° SSE
MOS 1-B 4.3 05:20:23 10° N 05:26:09 69° WNW 05:31:53 10° SSW
Cosmos 2322 Rocket 3.7 05:21:04 10° S 05:26:13 38° ESE 05:31:26 10° NE
Cosmos 1295 Rocket 4.5 05:20:39 10° NNW 05:26:42 56° W 05:32:38 10° SSW
NOAA 6 4.1 05:22:19 10° NNE 05:27:33 84° ESE 05:32:44 10° SSW
STARLINK-26 3.7 05:28:09 39° NW 05:28:23 40° NNW 05:31:44 10° NE
Cosmos 1680 Rocket 3.9 05:24:33 10° S 05:29:49 67° ESE 05:35:07 10° NNE
Cosmos 2366 rocket 4.3 05:26:06 10° N 05:32:27 72° E 05:38:48 10° SSE
Cosmos 2227 Rocket 4.2 05:35:46 11° SW 05:35:46 11° SW 05:36:12 10° SW
Cosmos 2344 3.9 05:28:46 20° WSW 05:33:44 46° NW 05:41:43 10° NNE
COSMO-SKYMED 1 3.2 05:31:11 10° SSW 05:35:05 32° W 05:36:13 28° WNW
Cosmos 1606 Rocket 3.5 05:32:46 10° SSW 05:37:10 61° W 05:41:34 10° N
Timation 1 Rocket 4.4 05:31:25 10° NNW 05:37:29 80° ENE 05:43:30 10° SSE
STARLINK-48 4.5 05:36:46 27° NW 05:37:35 29° NNW 05:41:03 10° NE
CENTAUR R/B 3.3 05:30:46 11° NW 05:38:36 81° NE 05:47:23 10° SE
Cosmos 2263 Rocket 2.3 05:32:59 10° NNW 05:38:40 76° ENE 05:44:19 10° SSE
Cosmos 1726 Rocket 3.5 05:34:51 10° SSW 05:39:17 73° W 05:43:43 10° N
ADEOS Rocket 3.0 05:34:13 10° SSE 05:39:39 71° ENE 05:45:16 10° N
STARLINK-33 3.2 05:38:04 29° WSW 05:39:44 67° NNW 05:43:22 10° NE
STARLINK-34 3.4 05:38:21 23° WSW 05:40:46 73° NNW 05:44:48 10° NE
STARLINK-24 3.4 05:40:12 22° WSW 05:42:43 71° NW 05:46:45 10° NE
STARLINK-66 3.3 05:41:42 27° WSW 05:43:29 61° NNW 05:47:05 10° NE
STARLINK-81 3.4 05:41:08 20° WSW 05:43:52 75° NW 05:47:55 10° NE
STARLINK-54 3.5 05:43:06 20° WSW 05:45:44 68° NNW 05:49:45 10° NE
Cosmos 2112 Rocket 4.2 05:41:04 10° SSW 05:46:24 80° ESE 05:51:47 10° NNE
STARLINK-77 3.5 05:44:19 18° WSW 05:47:10 71° NNW 05:51:12 10° NE
STARLINK-55 3.3 05:45:33 25° W 05:47:26 56° NNW 05:51:01 10° NE
METEOR-M 4.5 05:43:33 10° N 05:48:34 42° WNW 05:53:32 10° SW
STARLINK-25 3.5 05:45:55 18° WSW 05:48:50 69° NNW 05:52:51 10° NE
SMAP 3.8 05:45:09 10° NNE 05:49:45 58° E 05:54:20 10° S
Cosmos 1328 3.7 05:46:23 10° NNW 05:50:22 69° W 05:54:18 10° S
Cosmos 44 Rocket 4.5 05:49:25 20° W 05:50:43 23° WSW 05:54:23 10° SSW
STARLINK-71 3.5 05:47:54 18° WSW 05:50:43 62° NNW 05:54:43 10° NE
ATLAS 2AS CENTAUR R/B 3.0 05:43:14 10° SW 05:51:13 78° NW 05:59:16 10° NE
STARLINK-79 3.5 05:49:05 17° WSW 05:52:08 66° NNW 05:56:09 10° NE
STARLINK-28 3.5 05:50:50 22° W 05:52:47 48° NNW 05:56:15 10° NE
STARLINK-78 3.5 05:50:44 16° WSW 05:53:51 64° NNW 05:57:52 10° NE
STARLINK-57 3.6 05:52:30 16° WSW 05:55:36 60° NNW 05:59:35 10° NE
STARLINK-42 3.5 05:54:22 17° WSW 05:57:04 54° NNW 06:00:48 10° NE
STARLINK-49 3.6 05:53:53 15° WSW 05:57:07 61° NNW 06:01:07 10° NE
STARLINK-27 3.6 05:55:30 14° WSW 05:58:49 59° NNW 06:02:48 10° NE
STARLINK-64 3.6 05:56:44 16° WSW 05:59:37 53° NNW 06:03:22 10° NE
STARLINK-74 3.6 05:57:03 14° WSW 06:00:25 58° NNW 06:04:25 10° NE
USA 238 DEB 4.3 05:55:39 13° NW 06:01:34 40° WSW 06:08:23 10° S
USA 238 4.3 05:55:44 13° NW 06:01:40 41° WSW 06:08:30 10° S
Cosmos 2181 Rocket 4.1 05:55:55 10° SSW 06:01:57 53° WNW 06:08:07 10° N
STARLINK-39 3.7 05:58:40 13° WSW 06:02:07 56° NNW 06:06:06 10° NE
STARLINK 3.7 06:00:18 13° WSW 06:03:48 54° NNW 06:07:46 10° NE
Cosmos 1624 Rocket 4.3 05:59:03 10° NNW 06:04:17 72° ENE 06:09:27 10° SSE
SL-16 R/B 2.2 05:59:02 10° SSW 06:04:42 90° E 06:10:25 10° NNE
STARLINK-69 3.8 06:02:12 13° WSW 06:05:38 50° NNW 06:09:35 10° NE
Cosmos 2228 3.7 06:02:18 10° SW 06:06:17 33° WNW 06:10:17 10° N
STARLINK-21 3.7 06:03:29 12° WSW 06:07:07 52° NNW 06:11:04 10° NE
STARLINK-45 3.9 06:05:31 12° W 06:09:02 47° NNW 06:12:56 10° NE
SL-8 Rocket 4.2 06:03:24 10° NNW 06:09:19 48° W 06:15:10 10° SSW
AQUARIUS 4.2 06:05:15 10° NNE 06:09:47 85° ESE 06:14:16 10° SSW
Helios 1A Rocket 3.2 06:06:05 10° N 06:09:59 43° WNW 06:13:55 10° SW
STARLINK-70 3.9 06:06:53 11° WSW 06:10:34 47° NNW 06:14:29 10° NE
STARLINK 1052 4.4 06:07:39 10° SSW 06:11:04 44° SE 06:14:30 10° ENE
SL-4 R/B 2.4 06:09:15 15° WNW 06:11:47 36° SW 06:14:56 10° SSE
H-2A R/B 2.7 06:08:04 10° N 06:11:58 65° WNW 06:15:48 10° SSW
STARLINK-76 3.8 06:08:17 10° WSW 06:12:06 48° NNW 06:16:01 10° NE
STARLINK 3.9 06:09:52 10° WSW 06:13:45 47° NNW 06:17:40 10° NE
STARLINK 1068 4.3 06:10:22 10° SSW 06:13:48 47° SE 06:17:15 10° ENE
Lacrosse 5 2.7 06:09:37 10° SSW 06:14:34 56° SE 06:19:33 10° NE
CZ-4B R/B 3.5 06:09:37 10° N 06:14:53 44° WNW 06:20:01 10° SW
Cosmos 2360 Rocket 3.4 06:09:38 10° S 06:15:03 48° ESE 06:20:29 10° NE
Cosmos 1726 3.3 06:12:19 10° SW 06:15:10 21° WNW 06:18:01 10° NNW
STARLINK-32 3.9 06:11:32 10° WSW 06:15:26 46° NNW 06:19:20 10° NE
STARLINK-40 3.9 06:13:13 10° W 06:17:06 45° NNW 06:20:59 10° NE
STARLINK-44 4.0 06:14:54 10° W 06:18:45 44° NNW 06:22:38 10° NE
Cosmos 2056 Rocket 3.6 06:13:32 10° NNW 06:19:00 88° WSW 06:24:26 10° SSE
STARLINK 1060 4.1 06:15:46 10° SW 06:19:16 53° SE 06:22:46 10° ENE
STARLINK 1035 3.8 06:16:55 10° SW 06:20:11 54° SE 06:23:29 10° ENE
STARLINK-37 4.0 06:16:42 10° W 06:20:32 42° NNW 06:24:23 10° NE
Cosmos 1980 Rocket 3.2 06:17:13 10° WSW 06:21:46 24° NW 06:26:19 10° N
Cosmos 1300 2.9 06:18:04 10° S 06:21:52 76° E 06:25:42 10° NNE
STARLINK 1030 4.0 06:18:30 10° SW 06:22:01 56° SE 06:25:32 10° ENE
STARLINK-36 4.0 06:18:14 10° W 06:22:04 42° NNW 06:25:56 10° NE
STARLINK 1027 3.6 06:19:14 10° SW 06:22:32 62° SE 06:25:52 10° ENE
STARLINK-68 4.1 06:20:09 10° W 06:23:57 39° NNW 06:27:46 10° NE
STARLINK-61 4.5 06:21:04 10° W 06:24:35 30° NNW 06:28:08 10° NE
Cosmos 1908 4.0 06:21:10 10° SW 06:24:39 30° WNW 06:28:09 10° NNW
STARLINK 1020 3.9 06:21:13 10° SW 06:24:45 60° SE 06:28:19 10° ENE
STARLINK-63 4.1 06:21:42 10° W 06:25:30 39° NNW 06:29:19 10° NE
STARLINK-35 4.1 06:23:14 10° W 06:27:02 40° NNW 06:30:52 10° NE
ALOS 3.8 06:24:21 10° NNW 06:27:05 16° WNW 06:29:49 10° W
STARLINK 1034 3.8 06:24:00 10° SW 06:27:33 63° SE 06:31:07 10° ENE
STARLINK-51 4.1 06:24:55 10° W 06:28:43 39° NNW 06:32:31 10° NE
CZ-2C R/B 4.3 06:25:21 10° SE 06:29:58 33° ENE 06:34:42 10° N
Cosmos 1697 Rocket 4.4 06:27:47 10° WNW 06:30:22 13° NW 06:32:57 10° NNW
STARLINK-30 4.2 06:26:36 10° W 06:30:23 38° NNW 06:34:11 10° NE
Abrixas rocket 2.1 06:27:53 10° WNW 06:30:53 67° SSW 06:33:54 10° SE
STARLINK-72 4.2 06:28:17 10° W 06:32:02 37° NNW 06:35:50 10° NE
COSMOS 2455 3.7 06:27:12 10° WSW 06:32:16 28° NW 06:37:23 10° NNE
STARLINK 1040 2.6 06:29:29 10° SW 06:32:19 88° NW 06:35:11 10° NE
CZ-3 R/B 3.6 06:23:22 10° WSW 06:32:28 21° SW 06:36:48 10° SSE
FALCON 9 DEB 3.6 06:31:44 10° NW 06:32:31 12° NNW 06:33:20 10° N
STARLINK 1033 3.6 06:29:34 10° SW 06:33:08 71° SE 06:36:43 10° ENE
STARLINK-50 4.2 06:29:57 10° W 06:33:43 37° NNW 06:37:29 10° NE
STARLINK-75 4.3 06:30:46 10° W 06:34:16 32° NNW 06:37:47 10° NE
Lacrosse 5 rocket 3.6 06:32:10 10° NNW 06:34:56 16° N 06:37:39 10° NE
Okean-O 2.8 06:30:58 10° NNE 06:35:26 81° ESE 06:39:52 10° SSW
STARLINK-59 4.3 06:31:46 10° W 06:35:30 35° NNW 06:39:14 10° NE
Cosmos 1812 Rocket 3.7 06:31:25 10° S 06:35:46 83° E 06:40:11 10° N
Feng Yun 1-1 Rocket 4.4 06:31:34 10° N 06:37:29 70° WNW 06:43:17 10° SSW
